Terug naar catalogus

CZ-4C DEB

ActiefLEO
NORAD 44618·DEBRIS·🇨🇳 China

Gelanceerd Apr 10, 2018 vanaf Taiyuan Satellite Launch Center

Loading…

Volgende Passages (komende 24 uur)

TLE

VersSource: Space-Track

Epoch: Sep 14, 2026, 11:40 UTC

1 44618U 18034K   26257.48658979 -.00000049  00000-0  57641-4 0  9998
2 44618  63.4626 286.3475 0264763 345.7320  13.6327 13.42053316388839

Volg CZ-4C DEB in realtime met AllMySat

Download on the App Store